Overview Statistics Trail Chart Weather Telemetry Raw packets
 

This is the latest recevied weather packets stored in our database for station/object DH9SB-6. If no packets are shown the sender has not sent any weather packets the latest 10 day(s).

<< 1 2 3 4 5 6 7 >>
Time Temp. Humidity Pressure Rain* Wind** Luminosity Snow
1788145544 17.78° C 89% - 0 mm - - -
1788142329 18.33° C 86% - 0 mm - - -
1788140360 17.78° C 86% - 0.25 mm - - -
1788137385 18.33° C 83% - 0 mm - - -
1788135368 17.78° C 81% - 0 mm - - -
1788134264 17.22° C 84% - 0 mm - - -
1788131576 17.22° C 84% - 0 mm - - -
1788130377 17.22° C 83% - 0 mm - - -
1788129465 17.22° C 83% - 0 mm - - -
1788127352 17.22° C 82% - 0 mm - - -
1788126920 17.78° C 78% - 0 mm - - -
1788124377 17.78° C 76% - 0 mm - - -
1788124233 18.33° C 76% - 0 mm - - -
1788122889 18.33° C 75% - 0 mm - - -
1788122409 18.33° C 75% - 0 mm - - -
1788121833 18.33° C 74% - 0 mm - - -
1788120488 18.89° C 73% - 0 mm - - -
1788119913 19.44° C 72% - 0 mm - - -
1788119337 19.44° C 72% - 0 mm - - -
1788118665 20° C 71% - 0 mm - - -
1788118090 20° C 71% - 0 mm - - -
1788117179 20° C 71% - 0 mm - - -
1788116553 20.56° C 70% - 0 mm - - -
1788115976 20.56° C 69% - 0 mm - - -
1788115355 21.11° C 68% - 0 mm - - -

* Rain latest hour (hover to see other rain measurements)
** Current wind speed in m/s (hover to see current wind gust speed)